AFR1F MYNN-MWCR

Flight info

Callsign AFR1F
Flight time 1h 6m
Altitude 33000
Route JEFRY G437 DYNAH UG437 ULBAS UM330 KANEX GORAN3
Aircraft B77L/H-SDE1E2E3FGHIJ2J3J4J5M1RWXY/LB1D1

Departure

Time 2026-05-07 14:36
Airport Lynden Pindling International Airport (MYNN)

Arrival

Time 2026-05-07 15:42
Airport Owen Roberts International Airport (MWCR)
Time Latitude Longitude Altitude Speed Heading
2026-05-07 14:06 25.04874 -77.46830 18 ft 0 kts 146°
2026-05-07 14:14 25.04875 -77.46830 17 ft 0 kts 146°
2026-05-07 14:25 25.04886 -77.46838 18 ft 3 kts 158°
2026-05-07 14:26 25.04912 -77.46844 20 ft 4 kts 186°
2026-05-07 14:26 25.04938 -77.46837 19 ft 4 kts 207°
2026-05-07 14:26 25.04960 -77.46820 20 ft 4 kts 231°
2026-05-07 14:26 25.04966 -77.46811 20 ft 12 kts 244°
2026-05-07 14:29 25.04959 -77.46825 20 ft 4 kts 243°
2026-05-07 14:29 25.04947 -77.46853 19 ft 4 kts 243°
2026-05-07 14:30 25.04934 -77.46881 20 ft 4 kts 243°
2026-05-07 14:30 25.04920 -77.46916 17 ft 5 kts 247°
2026-05-07 14:30 25.04896 -77.46948 17 ft 5 kts 208°
2026-05-07 14:30 25.04860 -77.46940 17 ft 6 kts 147°
2026-05-07 14:31 25.04800 -77.46877 17 ft 21 kts 135°
2026-05-07 14:31 25.04692 -77.46758 17 ft 22 kts 135°
2026-05-07 14:31 25.04582 -77.46639 17 ft 22 kts 136°
2026-05-07 14:31 25.04475 -77.46517 16 ft 22 kts 134°
2026-05-07 14:32 25.04366 -77.46397 16 ft 22 kts 135°
2026-05-07 14:32 25.04257 -77.46277 18 ft 22 kts 135°
2026-05-07 14:32 25.04150 -77.46159 17 ft 22 kts 134°
2026-05-07 14:32 25.04042 -77.46038 16 ft 22 kts 135°
2026-05-07 14:33 25.03934 -77.45917 17 ft 22 kts 134°
2026-05-07 14:33 25.03825 -77.45798 16 ft 22 kts 134°
2026-05-07 14:33 25.03717 -77.45677 17 ft 22 kts 135°
2026-05-07 14:33 25.03608 -77.45557 16 ft 22 kts 134°
2026-05-07 14:34 25.03500 -77.45436 16 ft 22 kts 135°
2026-05-07 14:34 25.03393 -77.45318 15 ft 22 kts 135°
2026-05-07 14:34 25.03299 -77.45215 15 ft 14 kts 137°
2026-05-07 14:34 25.03211 -77.45173 15 ft 14 kts 179°
2026-05-07 14:35 25.03121 -77.45197 16 ft 9 kts 205°
2026-05-07 14:35 25.03091 -77.45230 16 ft 6 kts 255°
2026-05-07 14:35 25.03112 -77.45273 16 ft 7 kts 312°
2026-05-07 14:35 25.03188 -77.45359 15 ft 31 kts 316°
2026-05-07 14:36 25.03498 -77.45700 15 ft 101 kts 314°
2026-05-07 14:36 25.04160 -77.46434 15 ft 167 kts 315°
2026-05-07 14:36 25.05025 -77.47417 481 ft 175 kts 312°
2026-05-07 14:36 25.05779 -77.48423 1219 ft 174 kts 287°
2026-05-07 14:37 25.05722 -77.49804 1427 ft 196 kts 237°
2026-05-07 14:37 25.03410 -77.50908 2336 ft 204 kts 172°
2026-05-07 14:37 25.01997 -77.50715 3035 ft 200 kts 184°
2026-05-07 14:38 25.00623 -77.50813 3793 ft 200 kts 182°
2026-05-07 14:38 24.99192 -77.50900 4173 ft 216 kts 187°
2026-05-07 14:38 24.97627 -77.51141 4463 ft 239 kts 193°
2026-05-07 14:38 24.95944 -77.51622 4859 ft 257 kts 199°
2026-05-07 14:39 24.94259 -77.52283 5514 ft 262 kts 201°
2026-05-07 14:39 24.92513 -77.52936 6267 ft 266 kts 198°
2026-05-07 14:39 24.90707 -77.53526 6899 ft 275 kts 197°
2026-05-07 14:39 24.88843 -77.54097 7540 ft 281 kts 196°
2026-05-07 14:40 24.86950 -77.54699 8249 ft 285 kts 197°
2026-05-07 14:40 24.85066 -77.55362 8945 ft 288 kts 198°
2026-05-07 14:40 24.83141 -77.56060 9667 ft 292 kts 198°
2026-05-07 14:40 24.81175 -77.56758 10155 ft 305 kts 197°
2026-05-07 14:41 24.79094 -77.57482 10552 ft 318 kts 198°
2026-05-07 14:41 24.76967 -77.58283 11104 ft 327 kts 198°
2026-05-07 14:41 24.74783 -77.59138 11697 ft 338 kts 199°
2026-05-07 14:41 24.72533 -77.60032 12313 ft 349 kts 199°
2026-05-07 14:42 24.70242 -77.60937 12970 ft 358 kts 198°
2026-05-07 14:42 24.67856 -77.61824 13702 ft 365 kts 196°
2026-05-07 14:42 24.65410 -77.62681 14401 ft 371 kts 197°
2026-05-07 14:42 24.62930 -77.63578 15089 ft 377 kts 198°
2026-05-07 14:43 24.60447 -77.64505 15776 ft 383 kts 199°
2026-05-07 14:43 24.57897 -77.65487 16397 ft 392 kts 200°
2026-05-07 14:43 24.55304 -77.66518 16987 ft 401 kts 201°
2026-05-07 14:43 24.52674 -77.67626 17604 ft 404 kts 205°
2026-05-07 14:44 24.50155 -77.68960 18171 ft 410 kts 207°
2026-05-07 14:44 24.47549 -77.70352 18676 ft 420 kts 207°
2026-05-07 14:44 24.44871 -77.71718 19257 ft 425 kts 205°
2026-05-07 14:44 24.42179 -77.73003 20029 ft 425 kts 204°
2026-05-07 14:45 24.39441 -77.74231 20826 ft 425 kts 204°
2026-05-07 14:45 24.36701 -77.75450 21570 ft 427 kts 204°
2026-05-07 14:45 24.33916 -77.76698 21995 ft 438 kts 205°
2026-05-07 14:45 24.31069 -77.77992 22422 ft 447 kts 205°
2026-05-07 14:46 24.28170 -77.79325 22888 ft 455 kts 205°
2026-05-07 14:46 24.25231 -77.80678 23370 ft 461 kts 205°
2026-05-07 14:46 24.22263 -77.82034 23987 ft 462 kts 205°
2026-05-07 14:46 24.19326 -77.83362 24552 ft 463 kts 205°
2026-05-07 14:47 24.16341 -77.84708 25129 ft 464 kts 205°
2026-05-07 14:47 24.13339 -77.86029 25712 ft 466 kts 204°
2026-05-07 14:47 24.10314 -77.87329 26277 ft 467 kts 204°
2026-05-07 14:47 24.07260 -77.88618 26816 ft 470 kts 204°
2026-05-07 14:48 24.04250 -77.90035 27204 ft 473 kts 210°
2026-05-07 14:48 24.01341 -77.91742 27550 ft 476 kts 212°
2026-05-07 14:48 23.98356 -77.93381 27808 ft 486 kts 206°
2026-05-07 14:48 23.95229 -77.94767 28099 ft 492 kts 205°
2026-05-07 14:49 23.92037 -77.96145 28465 ft 493 kts 205°
2026-05-07 14:49 23.88863 -77.97642 28847 ft 497 kts 207°
2026-05-07 14:49 23.85722 -77.99261 29255 ft 499 kts 209°
2026-05-07 14:49 23.82637 -78.00944 29652 ft 502 kts 210°
2026-05-07 14:50 23.79501 -78.02661 30071 ft 505 kts 210°
2026-05-07 14:50 23.76339 -78.04396 30427 ft 507 kts 210°
2026-05-07 14:50 23.73186 -78.06151 30810 ft 507 kts 210°
2026-05-07 14:50 23.70041 -78.07901 31217 ft 508 kts 210°
2026-05-07 14:51 23.66914 -78.09601 31642 ft 507 kts 209°
2026-05-07 14:51 23.63734 -78.11268 32116 ft 505 kts 208°
2026-05-07 14:51 23.60537 -78.12884 32545 ft 505 kts 207°
2026-05-07 14:51 23.57320 -78.14492 32734 ft 509 kts 207°
2026-05-07 14:52 23.54121 -78.16089 32925 ft 512 kts 207°
2026-05-07 14:52 23.50903 -78.17737 32965 ft 507 kts 208°
2026-05-07 14:52 23.44646 -78.21039 32992 ft 492 kts 209°
2026-05-07 14:53 23.41574 -78.22702 33106 ft 492 kts 209°
2026-05-07 14:53 23.38548 -78.24407 32944 ft 495 kts 210°
2026-05-07 14:53 23.32304 -78.27806 33089 ft 505 kts 208°
2026-05-07 14:54 23.25925 -78.31143 33089 ft 514 kts 208°
2026-05-07 14:54 23.19482 -78.34499 33079 ft 512 kts 208°
2026-05-07 14:55 23.13105 -78.37835 33084 ft 510 kts 208°
2026-05-07 14:55 23.06703 -78.41188 33084 ft 509 kts 208°
2026-05-07 14:56 23.00321 -78.44524 33078 ft 509 kts 208°
2026-05-07 14:56 22.93975 -78.47843 33080 ft 509 kts 208°
2026-05-07 14:57 22.87576 -78.51189 33081 ft 510 kts 208°
2026-05-07 14:57 22.81166 -78.54538 33080 ft 510 kts 208°
2026-05-07 14:58 22.74794 -78.57860 33082 ft 511 kts 208°
2026-05-07 14:58 22.68374 -78.61198 33074 ft 512 kts 207°
2026-05-07 14:59 22.61950 -78.64533 33080 ft 512 kts 207°
2026-05-07 14:59 22.55515 -78.67873 33079 ft 512 kts 207°
2026-05-07 15:00 22.49111 -78.71194 33070 ft 512 kts 207°
2026-05-07 15:00 22.42667 -78.74533 33081 ft 512 kts 207°
2026-05-07 15:01 22.36231 -78.77864 33073 ft 513 kts 207°
2026-05-07 15:01 22.29818 -78.81179 33076 ft 513 kts 207°
2026-05-07 15:02 22.23366 -78.84511 33080 ft 514 kts 207°
2026-05-07 15:02 22.16942 -78.87825 33078 ft 514 kts 207°
2026-05-07 15:03 22.10482 -78.91155 33079 ft 514 kts 207°
2026-05-07 15:03 22.04014 -78.94486 33072 ft 514 kts 207°
2026-05-07 15:04 21.97554 -78.97808 33077 ft 514 kts 207°
2026-05-07 15:04 21.91128 -79.01110 33075 ft 514 kts 207°
2026-05-07 15:05 21.84659 -79.04432 33077 ft 514 kts 207°
2026-05-07 15:05 21.78224 -79.07732 33073 ft 514 kts 207°
2026-05-07 15:06 21.71803 -79.11143 33072 ft 514 kts 212°
2026-05-07 15:06 21.65956 -79.15520 33072 ft 511 kts 223°
2026-05-07 15:07 21.60669 -79.20634 33080 ft 510 kts 224°
2026-05-07 15:07 21.55401 -79.25737 33073 ft 511 kts 224°
2026-05-07 15:08 21.50088 -79.30818 33077 ft 511 kts 224°
2026-05-07 15:08 21.44798 -79.35850 33065 ft 511 kts 223°
2026-05-07 15:09 21.39461 -79.40924 33081 ft 511 kts 223°
2026-05-07 15:09 21.35029 -79.45137 33079 ft 511 kts 223°
2026-05-07 15:10 21.28835 -79.51019 33079 ft 511 kts 223°
2026-05-07 15:10 21.24402 -79.55221 33064 ft 510 kts 223°
2026-05-07 15:11 21.19082 -79.60260 33062 ft 510 kts 223°
2026-05-07 15:11 21.13753 -79.65307 33061 ft 510 kts 223°
2026-05-07 15:12 21.08428 -79.70344 33076 ft 510 kts 223°
2026-05-07 15:12 21.03135 -79.75346 33077 ft 510 kts 223°
2026-05-07 15:13 20.97798 -79.80385 33074 ft 510 kts 223°
2026-05-07 15:13 20.92475 -79.85406 33054 ft 509 kts 223°
2026-05-07 15:14 20.87189 -79.90386 33072 ft 509 kts 223°
2026-05-07 15:14 20.81853 -79.95409 33068 ft 509 kts 223°
2026-05-07 15:15 20.76565 -80.00382 33070 ft 509 kts 223°
2026-05-07 15:15 20.71235 -80.05389 33050 ft 504 kts 223°
2026-05-07 15:16 20.66077 -80.10228 33046 ft 491 kts 223°
2026-05-07 15:16 20.60926 -80.15061 33067 ft 491 kts 223°
2026-05-07 15:17 20.55813 -80.19854 33065 ft 491 kts 223°
2026-05-07 15:17 20.50665 -80.24672 33041 ft 485 kts 223°
2026-05-07 15:18 20.48193 -80.26978 33038 ft 471 kts 223°
2026-05-07 15:18 20.45761 -80.29244 33015 ft 458 kts 223°
2026-05-07 15:18 20.43359 -80.31484 32574 ft 455 kts 223°
2026-05-07 15:18 20.41014 -80.33672 32150 ft 451 kts 223°
2026-05-07 15:19 20.38653 -80.35873 31707 ft 448 kts 223°
2026-05-07 15:19 20.36313 -80.38056 31284 ft 445 kts 223°
2026-05-07 15:19 20.33985 -80.40225 30848 ft 443 kts 223°
2026-05-07 15:19 20.31673 -80.42380 30422 ft 440 kts 223°
2026-05-07 15:20 20.29365 -80.44529 29951 ft 439 kts 223°
2026-05-07 15:20 20.27066 -80.46669 29464 ft 437 kts 223°
2026-05-07 15:20 20.24807 -80.48771 29010 ft 434 kts 223°
2026-05-07 15:20 20.22540 -80.50879 28565 ft 431 kts 223°
2026-05-07 15:21 20.20286 -80.52975 28118 ft 429 kts 223°
2026-05-07 15:21 20.18030 -80.55071 27689 ft 426 kts 222°
2026-05-07 15:21 20.15822 -80.57123 27267 ft 424 kts 222°
2026-05-07 15:21 20.13604 -80.59182 26843 ft 422 kts 222°
2026-05-07 15:22 20.11394 -80.61233 26412 ft 420 kts 222°
2026-05-07 15:22 20.09195 -80.63274 25994 ft 419 kts 221°
2026-05-07 15:22 20.06999 -80.65311 25570 ft 417 kts 221°
2026-05-07 15:22 20.04814 -80.67337 25142 ft 417 kts 221°
2026-05-07 15:23 20.02630 -80.69362 24714 ft 416 kts 221°
2026-05-07 15:23 20.00447 -80.71383 24287 ft 415 kts 221°
2026-05-07 15:23 19.98265 -80.73403 23863 ft 415 kts 221°
2026-05-07 15:23 19.96081 -80.75424 23402 ft 416 kts 220°
2026-05-07 15:24 19.93919 -80.77423 22926 ft 417 kts 220°
2026-05-07 15:24 19.91728 -80.79448 22491 ft 418 kts 220°
2026-05-07 15:24 19.89525 -80.81484 22063 ft 418 kts 220°
2026-05-07 15:24 19.87318 -80.83523 21628 ft 419 kts 220°
2026-05-07 15:25 19.85140 -80.85535 21189 ft 420 kts 220°
2026-05-07 15:25 19.82934 -80.87573 20763 ft 421 kts 220°
2026-05-07 15:25 19.80718 -80.89619 20322 ft 419 kts 220°
2026-05-07 15:25 19.78532 -80.91636 19862 ft 409 kts 220°
2026-05-07 15:26 19.76428 -80.93578 19447 ft 399 kts 220°
2026-05-07 15:26 19.74354 -80.95492 19027 ft 390 kts 220°
2026-05-07 15:26 19.72298 -80.97386 18615 ft 392 kts 220°
2026-05-07 15:26 19.70226 -80.99295 18171 ft 396 kts 220°
2026-05-07 15:27 19.68134 -81.01220 17704 ft 399 kts 220°
2026-05-07 15:27 19.66029 -81.03158 17241 ft 401 kts 220°
2026-05-07 15:27 19.63953 -81.05069 16762 ft 397 kts 220°
2026-05-07 15:27 19.61901 -81.06957 16315 ft 380 kts 220°
2026-05-07 15:28 19.59931 -81.08771 15896 ft 370 kts 220°
2026-05-07 15:28 19.58009 -81.10539 15502 ft 362 kts 220°
2026-05-07 15:28 19.56123 -81.12273 15102 ft 354 kts 220°
2026-05-07 15:28 19.54296 -81.13952 14774 ft 341 kts 220°
2026-05-07 15:29 19.52554 -81.15552 14418 ft 328 kts 220°
2026-05-07 15:29 19.50858 -81.17109 14005 ft 317 kts 220°
2026-05-07 15:29 19.49202 -81.18630 13421 ft 315 kts 220°
2026-05-07 15:29 19.47532 -81.20162 12982 ft 317 kts 220°
2026-05-07 15:30 19.45872 -81.21686 12717 ft 313 kts 220°
2026-05-07 15:30 19.44233 -81.23189 12408 ft 309 kts 220°
2026-05-07 15:30 19.42627 -81.24663 12051 ft 309 kts 220°
2026-05-07 15:30 19.40997 -81.26157 11705 ft 308 kts 220°
2026-05-07 15:31 19.39380 -81.27640 11396 ft 306 kts 220°
2026-05-07 15:31 19.37770 -81.29116 11125 ft 303 kts 220°
2026-05-07 15:31 19.36178 -81.30574 10840 ft 300 kts 220°
2026-05-07 15:31 19.34621 -81.32001 10525 ft 299 kts 220°
2026-05-07 15:32 19.33040 -81.33448 10221 ft 298 kts 220°
2026-05-07 15:32 19.31471 -81.34884 9914 ft 296 kts 220°
2026-05-07 15:32 19.30091 -81.36435 9471 ft 294 kts 239°
2026-05-07 15:32 19.29484 -81.38503 9006 ft 297 kts 267°
2026-05-07 15:33 19.29705 -81.40661 8756 ft 292 kts 283°
2026-05-07 15:33 19.30202 -81.42725 8534 ft 287 kts 284°
2026-05-07 15:33 19.30707 -81.44755 8328 ft 282 kts 284°
2026-05-07 15:33 19.31194 -81.46719 8115 ft 277 kts 284°
2026-05-07 15:34 19.31678 -81.48688 7891 ft 274 kts 283°
2026-05-07 15:34 19.32151 -81.50629 7741 ft 272 kts 283°
2026-05-07 15:34 19.32629 -81.52611 7569 ft 283 kts 283°
2026-05-07 15:34 19.33120 -81.54660 7241 ft 289 kts 283°
2026-05-07 15:35 19.33616 -81.56727 6932 ft 289 kts 283°
2026-05-07 15:35 19.34105 -81.58774 6583 ft 289 kts 283°
2026-05-07 15:35 19.34442 -81.60841 6216 ft 281 kts 264°
2026-05-07 15:35 19.33828 -81.62742 5882 ft 270 kts 229°
2026-05-07 15:36 19.32364 -81.63869 5626 ft 258 kts 193°
2026-05-07 15:36 19.30609 -81.63994 5388 ft 255 kts 173°
2026-05-07 15:36 19.28813 -81.63790 5105 ft 263 kts 171°
2026-05-07 15:36 19.26979 -81.63566 4793 ft 265 kts 170°
2026-05-07 15:37 19.25254 -81.63036 4445 ft 255 kts 146°
2026-05-07 15:37 19.24051 -81.61753 4178 ft 247 kts 118°
2026-05-07 15:37 19.23506 -81.60054 3909 ft 243 kts 99°
2026-05-07 15:37 19.23522 -81.58280 3611 ft 242 kts 78°
2026-05-07 15:38 19.24015 -81.56593 3463 ft 234 kts 72°
2026-05-07 15:38 19.24543 -81.55038 3360 ft 219 kts 72°
2026-05-07 15:38 19.25052 -81.53562 3086 ft 208 kts 76°
2026-05-07 15:38 19.25394 -81.52111 2927 ft 199 kts 78°
2026-05-07 15:39 19.25703 -81.50691 2656 ft 194 kts 79°
2026-05-07 15:39 19.26002 -81.49334 2388 ft 182 kts 78°
2026-05-07 15:39 19.26280 -81.48093 2168 ft 169 kts 79°
2026-05-07 15:39 19.26550 -81.46886 1980 ft 169 kts 78°
2026-05-07 15:40 19.26821 -81.45682 1728 ft 166 kts 78°
2026-05-07 15:40 19.27084 -81.44518 1597 ft 161 kts 77°
2026-05-07 15:40 19.27373 -81.43366 1577 ft 166 kts 76°
2026-05-07 15:40 19.27742 -81.42199 1316 ft 164 kts 74°
2026-05-07 15:41 19.28027 -81.41086 1065 ft 151 kts 78°
2026-05-07 15:41 19.28258 -81.40026 664 ft 147 kts 78°
2026-05-07 15:41 19.28480 -81.39012 320 ft 132 kts 73°
2026-05-07 15:41 19.28760 -81.37944 251 ft 162 kts 78°
2026-05-07 15:42 19.29033 -81.36825 64 ft 150 kts 78°
2026-05-07 15:42 19.29264 -81.35825 19 ft 121 kts 76°
2026-05-07 15:42 19.29414 -81.35202 22 ft 56 kts 75°
2026-05-07 15:42 19.29460 -81.35015 24 ft 12 kts 76°
2026-05-07 15:43 19.29479 -81.34930 22 ft 12 kts 76°
2026-05-07 15:43 19.29496 -81.34858 24 ft 7 kts 72°
2026-05-07 15:43 19.29534 -81.34856 27 ft 7 kts 312°
2026-05-07 15:43 19.29565 -81.34906 22 ft 9 kts 297°
2026-05-07 15:44 19.29569 -81.34976 21 ft 10 kts 258°
2026-05-07 15:44 19.29552 -81.35048 20 ft 10 kts 256°
2026-05-07 15:44 19.29526 -81.35161 19 ft 23 kts 257°
2026-05-07 15:44 19.29483 -81.35331 19 ft 24 kts 254°
2026-05-07 15:45 19.29444 -81.35484 19 ft 9 kts 257°
2026-05-07 15:45 19.29435 -81.35536 19 ft 6 kts 259°
2026-05-07 15:45 19.29433 -81.35571 19 ft 4 kts 286°
2026-05-07 15:45 19.29456 -81.35588 20 ft 4 kts 335°
2026-05-07 15:46 19.29468 -81.35648 19 ft 5 kts 264°
2026-05-07 15:46 19.29455 -81.35711 21 ft 10 kts 255°
2026-05-07 15:46 19.29439 -81.35780 21 ft 10 kts 256°
2026-05-07 15:47 19.29427 -81.35824 23 ft 1 kts 255°
2026-05-07 15:47 19.29426 -81.35830 22 ft 0 kts 255°
2026-05-07 15:47 19.29425 -81.35832 21 ft 1 kts 255°
2026-05-07 15:47 19.29423 -81.35840 20 ft 1 kts 256°
2026-05-07 15:48 19.29425 -81.35849 20 ft 1 kts 283°
2026-05-07 15:48 19.29431 -81.35858 22 ft 2 kts 308°
2026-05-07 15:48 19.29442 -81.35862 21 ft 2 kts 343°
2026-05-07 15:48 19.29454 -81.35865 20 ft 2 kts 344°
2026-05-07 15:49 19.29468 -81.35869 21 ft 2 kts 344°
2026-05-07 15:49 19.29482 -81.35873 20 ft 2 kts 345°
2026-05-07 15:49 19.29485 -81.35874 20 ft 0 kts 345°